Location: Stillwell
(40.4602°N, 82.0928°W)
Time: 19:24:19
(UTC-04:00)

Daily predictions for brighter satellites

Satellite Brightness Start Highest point End
(mag) Time Altitude Azimuth Time Altitude Azimuth Time Altitude Azimuth
Meteor 2-21 4.5 20:26:05 10° S 20:32:16 80° E 20:38:26 10° N
Helios 1A 3.2 20:30:07 10° S 20:34:16 76° WSW 20:38:28 10° NNW
Meteor 1-23 Rocket 4.2 20:28:48 10° N 20:34:27 75° E 20:40:09 10° SSE
NOSS 3-4 (A) 3.9 20:29:14 10° NNW 20:36:14 69° NE 20:43:39 10° SE
NOSS 3-4 (C) 3.9 20:29:21 10° NNW 20:36:22 69° NE 20:43:46 10° SE
Cosmos 2208 Rocket 4.1 20:39:16 10° S 20:44:29 64° ESE 20:49:50 10° NNE
Meteor 2-15 4.4 20:39:19 10° N 20:45:22 69° E 20:51:23 10° SSE
CZ-2D R/B 3.4 20:43:01 10° SSE 20:46:47 54° ENE 20:50:35 10° N
FengYun 1-2 T 4.4 20:41:58 10° SSE 20:47:38 87° WSW 20:53:17 10° NNW
Cosmos 1025 Rocket 3.8 20:43:58 10° NNW 20:48:15 57° W 20:52:28 10° S
Cosmos 1461 3.1 20:44:25 10° NNW 20:48:24 52° NE 20:52:15 10° SE
H-2A R/B 4.1 20:47:35 10° ENE 20:48:33 11° ENE 20:49:31 10° NE
Meteor 2-14 Rocket 4.4 20:43:15 10° S 20:49:24 79° E 20:55:34 10° N
OAO 2 Rocket 4.1 20:45:03 10° SW 20:49:37 36° SSE 20:54:03 11° ESE
Spot 2 Rocket 4.3 20:45:16 10° S 20:50:15 54° W 20:55:15 10° NNW
Hubble Space Telescope 3.2 20:48:54 10° SSW 20:50:20 12° SSW 20:51:46 10° S
Meteor 2-15 Rocket 4.5 20:45:03 10° N 20:51:06 65° E 20:57:06 10° SSE
Cosmos 1892 Rocket 3.7 20:46:42 10° N 20:51:12 87° WSW 20:55:40 10° S
Cosmos 2123 Rocket 4.0 20:45:10 10° N 20:51:18 63° E 20:57:23 10° SSE
Cosmos 1626 Rocket 4.4 20:47:32 10° NNE 20:51:29 32° ENE 20:55:23 10° SE
Cosmos 1455 Rocket 3.0 20:51:08 10° S 20:55:26 73° E 20:59:48 10° NNE
FENGYUN 3A 3.6 20:50:16 10° SSE 20:55:36 76° ENE 21:00:58 10° N
NOSS 7 (E) 4.4 20:53:33 10° SW 20:57:02 83° NW 21:00:25 10° NNE
Cosmos 2227 Rocket 2.2 20:52:36 10° NNW 20:58:16 67° ENE 21:03:52 10° SSE
Cosmos 1656 4.1 20:54:33 10° S 20:59:40 37° ESE 21:04:46 10° NE
Cosmos 1570 Rocket 4.1 20:55:01 10° SSW 21:00:20 85° WNW 21:05:39 10° NNE
Cosmos 1602 Rocket 4.1 20:56:11 10° N 21:00:23 40° ENE 21:04:33 10° SSE
Envisat 4.2 20:57:13 12° ESE 21:00:50 25° ENE 21:04:56 10° NNE
CZ-4B DEB 3.5 20:59:08 10° S 21:02:20 56° W 21:05:35 10° NNW
Cosmos 1346 Rocket 2.8 21:00:02 10° N 21:03:59 88° W 21:07:58 10° S
Cosmos 1500 4.2 21:02:27 11° SE 21:05:20 25° E 21:08:27 10° NE
NOSS 7 (H) 4.2 21:03:19 10° SSW 21:06:38 68° ESE 21:10:01 10° NE
Iridium 4 Rocket 3.7 21:04:56 10° N 21:09:49 45° E 21:14:15 10° SSE
Meteor 1-5 Rocket 4.4 21:04:32 10° SSW 21:09:50 73° W 21:15:20 10° N
ALOS 2.5 21:05:52 10° S 21:10:31 72° WSW 21:15:13 10° NNW
Cosmos 2084 4.4 21:08:49 10° NNW 21:12:28 31° NE 21:14:49 19° E
Cosmos 2082 3.6 21:06:52 10° NNW 21:12:31 81° ENE 21:18:05 10° SSE
Cosmos 2297 Rocket 2.3 21:08:06 10° NNW 21:13:44 64° ENE 21:18:32 14° SE
Cosmos 220 Rocket 4.1 21:13:51 10° N 21:18:01 56° ENE 21:20:50 19° SE
Cosmos 1153 Rocket 4.5 21:13:42 10° S 21:19:47 62° E 21:25:51 10° NNE
Cosmos 1934 Rocket 4.5 21:13:47 10° SSW 21:19:50 64° W 21:26:02 10° N
Resurs 01 Rocket 4.0 21:16:14 10° SSW 21:19:50 24° W 21:23:28 10° NW
RESURS DK-1 3.8 21:16:36 10° N 21:19:54 22° NE 21:21:23 19° E
CZ-3C R/B 4.2 20:26:40 10° WSW 21:20:06 35° SSW 21:28:20 13° SSE
USA 186 2.5 21:22:19 10° S 21:25:29 51° W 21:28:28 10° NNW
DELTA 2 R/B (1) 3.6 21:22:04 10° W 21:27:38 72° SSW 21:31:01 24° ESE
BREEZE-M DEB (TANK) 4.3 21:08:51 10° SW 21:27:55 68° SSE 21:32:42 12° ENE
Cosmos 1515 3.7 21:24:53 10° N 21:28:42 57° E 21:30:46 24° SSE
Cosmos 1447 Rocket 4.5 21:25:01 10° N 21:31:20 75° E 21:37:40 10° SSE
ERS-1 Rocket 3.0 21:27:56 18° SSE 21:31:40 63° ENE 21:36:38 10° N
Cosmos 1802 Rocket 4.5 21:29:34 15° SSE 21:34:19 40° E 21:40:15 10° NNE
Cosmos 1743 3.3 21:40:00 36° ESE 21:40:20 36° E 21:43:57 10° NNE
Cosmos 1898 Rocket 3.5 21:35:23 10° NNW 21:40:40 65° ENE 21:43:26 28° SE
OTV 4 1.8 21:38:30 10° WSW 21:41:04 26° SSW 21:41:08 26° SSW
Cosmos 1763 Rocket 4.1 21:43:23 30° ESE 21:43:39 31° E 21:48:04 10° NE
Lacrosse 5 2.3 21:41:14 10° NW 21:46:08 48° NE 21:48:08 31° E
Cosmos 1066 Rocket 4.2 21:41:27 10° N 21:47:07 74° E 21:50:49 23° SSE
Tiangong 1 1.4 21:44:23 10° WNW 21:47:26 55° N 21:47:55 48° NE
Cosmos 2016 Rocket 4.3 21:47:11 27° SE 21:50:00 43° E 21:55:48 10° NNE
Cosmos 1697 Rocket 2.6 21:45:07 10° SSW 21:50:45 75° ESE 21:56:24 10° NNE
SPOT 5 3.3 21:50:57 36° ESE 21:52:26 47° ENE 21:57:05 10° N
Cosmos 1975 4.0 21:50:58 10° SSW 21:54:54 45° W 21:58:52 10° N
Cosmos 468 Rocket 3.9 21:52:28 10° SSW 21:57:36 90° E 22:02:45 10° NNE
SL-16 R/B 4.3 22:00:58 11° ENE 22:00:58 11° ENE 22:01:16 10° ENE
Cosmos 1726 Rocket 4.2 21:58:23 36° ENE 21:58:23 36° ENE 22:01:55 10° NNE
Cosmos 2173 Rocket 3.9 21:56:18 11° S 22:02:32 77° E 22:08:53 10° N
USA 215 4.3 22:00:24 19° ENE 22:04:15 34° NNE 22:10:01 10° NW
Lacrosse 5 rocket 2.0 22:01:36 10° WNW 22:05:01 36° SW 22:05:31 34° SSW
Cosmos 841 Rocket 3.8 22:05:13 43° E 22:05:13 43° E 22:10:05 10° NNE
Cosmos 1814 Rocket 4.0 22:01:34 10° SSW 22:06:55 89° WNW 22:12:16 10° NNE
Cosmos 972 Rocket 4.4 22:02:59 10° NNW 22:08:58 88° ENE 22:12:04 34° SSE
Cosmos 1825 Rocket 3.4 22:07:30 10° N 22:11:57 80° E 22:12:29 67° SSE
ARGOS 3.6 22:12:12 39° E 22:12:44 40° ENE 22:17:44 10° N
Cosmos 1980 Rocket 2.1 22:07:42 10° SSW 22:13:19 70° ESE 22:19:00 10° NNE
Cosmos 2100 Rocket 4.1 22:08:18 10° S 22:14:36 79° W 22:20:52 10° N
Cosmos 2061 Rocket 4.0 22:12:26 11° S 22:18:36 81° W 22:24:54 10° N
Cosmos 1953 Rocket 3.5 22:17:07 10° N 22:21:30 73° ENE 22:21:30 73° ENE
Tsikada Rocket 4.2 22:16:20 10° N 22:22:33 50° ENE 22:23:28 47° ESE
H-2A R/B 2.1 22:23:39 63° SW 22:23:58 66° WSW 22:28:06 10° NNW
Terra 3.6 22:28:05 20° NE 22:28:05 20° NE 22:30:37 10° NNE
Cosmos 1939 Rocket 4.3 22:26:45 27° SW 22:28:09 35° W 22:32:00 10° NNW
MetOp-B 4.0 22:28:30 60° SSE 22:29:31 90° SW 22:34:55 10° NNW
Cosmos 1666 4.4 22:31:54 26° NNE 22:31:54 26° NNE 22:33:39 10° NNE
Milstar 3 Cent rocket 4.3 22:11:38 10° W 22:30:16 46° SSW 22:34:14 36° SSE
OAO 2 Rocket 4.0 22:29:10 10° WSW 22:33:00 40° SW 22:33:00 40° SW
deb Chang Zheng 4 4.5 22:33:17 10° N 22:37:36 49° WNW 22:39:28 30° SW
ASTEX 1 3.5 22:33:36 10° N 22:38:37 76° W 22:39:19 63° SW
Envisat 4.2 22:37:26 26° SW 22:39:38 38° W 22:44:22 10° NNW
Cosmos 1758 Rocket 3.8 22:36:08 10° N 22:39:54 64° NNW 22:39:54 64° NNW
Meteor 1-21 4.4 22:35:43 10° NNW 22:41:27 69° W 22:42:53 50° SSW
Cosmos 2263 Rocket 3.5 22:37:32 10° N 22:41:51 25° NE 22:41:51 25° NE
Cosmos 1937 Rocket 4.3 22:40:26 10° NNW 22:45:27 45° WSW 22:46:32 40° SW
Cosmos 2322 Rocket 3.4 22:48:05 28° NE 22:48:05 28° NE 22:50:51 10° NE
H-2A R/B 2.9 22:48:51 36° NE 22:48:51 36° NE 22:52:22 10° N
Cosmos 1725 Rocket 3.8 22:47:52 67° S 22:48:48 86° E 22:55:04 10° N
Cosmos 1340 4.4 22:50:36 10° NNW 22:53:18 31° WNW 22:53:18 31° WNW
Cosmos 2360 4.2 22:53:09 56° SW 22:54:21 77° WNW 23:00:07 10° NNE
Meteor 2-9 Rocket 4.1 22:56:00 78° W 22:56:08 79° W 23:01:35 10° N
Cosmos 2297 Rocket 4.5 22:53:38 10° WNW 22:57:10 17° W 23:00:22 11° SW
RESURS DK-1 4.0 22:54:20 10° NW 22:57:19 29° W 22:57:19 29° W
Cosmos 2098 Rocket 4.3 22:58:17 41° SSW 23:00:46 70° W 23:06:44 10° N
Cosmos 2058 Rocket 4.1 23:03:28 46° NW 23:03:28 46° NW 23:07:07 10° N
Cosmos 2227 4.4 22:56:59 10° NNW 23:02:40 65° WSW 23:02:40 65° WSW
CZ-4B R/B 4.1 22:58:37 10° NNE 23:02:03 48° N 23:02:03 48° N
SPOT 1/Viking Rocket 3.9 23:07:00 59° W 23:07:00 59° W 23:11:53 10° NNW
Cosmos 2233 Rocket 4.0 23:15:54 72° NNE 23:15:54 72° NNE 23:21:27 10° N
Lacrosse 5 3.7 23:24:34 10° WNW 23:27:19 24° W 23:27:19 24° W
Cosmos 1125 Rocket 4.4 23:23:48 10° NNW 23:27:33 45° NW 23:27:33 45° NW
SL-16 R/B 3.2 23:42:47 43° N 23:42:47 43° N 23:46:46 10° NNE
USA 215 3.4 23:47:44 68° NW 23:47:44 68° NW 23:53:23 10° NW
